Weather History for Crestview, FL

Change the Weather History Date:

Friday, November 29, 2013

  Actual Average Record
Temperature  
Mean Temperature 42 °F -  
Max Temperature 60 °F - - ()
Min Temperature 25 °F - - ()
Degree Days  
Heating Degree Days 22    
Moisture  
Dew Point 24 °F    
Average Humidity 59    
Maximum Humidity 83    
Minimum Humidity 25    
Precipitation  
Precipitation 0.00 in - - ()
Sea Level Pressure  
Sea Level Pressure 30.46 in    
Wind  
Wind Speed 3 mph (North)    
Max Wind Speed 12 mph    
Max Gust Speed -    
Visibility 10 miles    
Events      
T = Trace of Precipitation, MM = Missing Value Source: NWS Daily Summary

Daily Weather History Graph

Daily Weather History Graph

Search for Another Location

Airport:

Trip Planner

Search our weather history database for the weather conditions in past years. The results will help you decide how hot, cold, wet, or windy it might be!

Date:

Astronomy

Nov. 29, 2013 Rise Set
Actual Time 6:24 AM CST 4:44 PM CST
Civil Twilight 5:58 AM CST 5:10 PM CST
Nautical Twilight 5:28 AM CST 5:40 PM CST
Astronomical Twilight 4:59 AM CST 6:09 PM CST
Moon 2:42 AM CST (11/29) 2:17 PM CST (11/29)
Length of Visible Light 11h 12m
Length of Day
10h 20m
Waning Crescent, 14% of the Moon is Illuminated
Nov 29
Waning Crescent
Dec 2
New
Dec 9
First Quarter
Dec 17
Full
Dec 25
Last Quarter

Hourly Weather History & Observations

Time (CST) Temp. Windchill Dew Point Humidity Pressure Visibility Wind Dir Wind Speed Gust Speed Precip Events Conditions
12:58 AM 31.3 °F - 25.3 °F 79% 30.46 in 10.0 mi NNW 2.3 mph - N/A   Scattered Clouds
1:58 AM 28.6 °F - 23.9 °F 83% 30.46 in 10.0 mi North 1.2 mph - N/A   Clear
2:58 AM 27.9 °F - 23.0 °F 82% 30.46 in 10.0 mi NNW 1.2 mph - N/A   Clear
3:58 AM 27.0 °F - 22.5 °F 83% 30.46 in 10.0 mi NW 2.3 mph - N/A   Clear
4:58 AM 26.2 °F - 21.7 °F 83% 30.48 in 10.0 mi North 2.3 mph - N/A   Clear
5:58 AM 25.5 °F 21.3 °F 20.1 °F 80% 30.49 in 10.0 mi North 3.5 mph - N/A   Clear
6:58 AM 27.0 °F - 21.9 °F 81% 30.53 in 10.0 mi Calm Calm - N/A   Clear
7:58 AM 35.1 °F 31.0 °F 23.4 °F 62% 30.53 in 10.0 mi North 4.6 mph - N/A   Clear
8:58 AM 43.7 °F 41.1 °F 21.2 °F 41% 30.53 in 10.0 mi NNE 4.6 mph - N/A   Clear
9:58 AM 50.5 °F - 17.4 °F 27% 30.52 in 10.0 mi NE 10.4 mph - N/A   Clear
10:58 AM 54.7 °F - 18.9 °F 25% 30.50 in 10.0 mi NNE 9.2 mph - N/A   Clear
11:58 AM 56.7 °F - 21.4 °F 25% 30.46 in 10.0 mi ENE 8.1 mph - N/A   Clear
12:58 PM 59.0 °F - 23.5 °F 26% 30.43 in 10.0 mi North 11.5 mph - N/A   Clear
1:58 PM 59.9 °F - 24.4 °F 26% 30.43 in 10.0 mi NNE 9.2 mph - N/A   Clear
2:58 PM 60.3 °F - 26.2 °F 27% 30.42 in 10.0 mi NNE 8.1 mph - N/A   Clear
3:58 PM 59.2 °F - 27.5 °F 30% 30.42 in 10.0 mi NNE 6.9 mph - N/A   Clear
4:58 PM 52.9 °F - 28.0 °F 38% 30.43 in 10.0 mi NNE 2.3 mph - N/A   Clear
5:58 PM 43.3 °F - 29.3 °F 58% 30.45 in 10.0 mi Calm Calm - N/A   Clear
6:58 PM 38.7 °F - 29.1 °F 69% 30.45 in 10.0 mi NE 2.3 mph - N/A   Clear
7:58 PM 37.0 °F - 27.9 °F 69% 30.46 in 10.0 mi North 2.3 mph - N/A   Clear
8:58 PM 34.3 °F - 27.7 °F 77% 30.46 in 10.0 mi Calm Calm - N/A   Clear
9:58 PM 32.2 °F - 26.4 °F 79% 30.44 in 10.0 mi Calm Calm - N/A   Clear
10:58 PM 30.7 °F - 25.2 °F 80% 30.44 in 10.0 mi Calm Calm - N/A   Clear
11:58 PM 30.7 °F 27.3 °F 24.8 °F 79% 30.43 in 10.0 mi NNW 3.5 mph - N/A   Clear